Location: Chimay
(50.0486°N, 4.3171°E)
Time: 15:58:32
(UTC+00:00)

CZ-2D R/B - Pass Details

Date: 08 August 2020
Orbit: 792 x 845 km, 98.7° (Epoch: 18 September)

Event Time Altitude Azimuth Distance (km) Brightness Sun altitude
Rises 23:46:34 0° 30° (NNE) 3,413 6.3 -24.2°
Reaches altitude 10° 23:50:19 10° 56° (NE) 2,475 5.0 -24.2°
Maximum altitude 23:52:59 14° 85° (E) 2,221 4.4 -24.2°
Enters shadow 23:54:55 12° 107° (ESE) 2,352 4.4 -24.2°
